HODOYOSHI-3

Last updated on Sat Feb 07 2026 00:02:31 GMT+0000 (Coordinated Universal Time)

1 40015U 14033F 26037.41756259 .00001839 00000+0 21925-3 0 9990 2 40015 97.6251 205.8532 0034302 66.3614 294.1196 14.85042353628211
UTC large
Height (km)
Speed (km/s)
/
Latitude / Longitude
Inclination (degrees)
Orbital Period (minutes)
Azimuth
Elevation
Range (km)
Doppler Factor

Next 0 passes for location: London (51.5072 / 0.1276)

Sorry there are no passes over London.